Location: Unspecified
(0.0000°N, 0.0000°E)
Time: 20:50:00
(UTC+00:00)

Vanguard 3 - Visible Passes

Search period start: 27 July 2017 00:00
Search period end: 06 August 2017 00:00
Orbit: 508 x 3265 km, 33.3° (Epoch: 26 July)

Date Brightness Start Highest point End Pass type
(mag) Time Alt. Az. Time Alt. Az. Time Alt. Az.
27 Jul 8.8 04:21:27 18° NW 04:21:27 18° NW 04:24:10 10° N visible
27 Jul 11.0 20:03:38 10° SW 20:14:52 17° S 20:21:10 14° SSE visible
27 Jul 11.4 22:25:44 10° SSW 22:25:44 10° SSW 22:25:44 10° SSW visible
28 Jul 9.6 03:11:57 16° NNE 03:11:57 16° NNE 03:12:47 10° NE visible
28 Jul 11.1 18:43:12 10° SW 18:55:33 20° SSW 19:08:21 10° SSE visible
28 Jul 11.0 21:07:35 10° SSW 21:16:07 17° S 21:16:07 17° S visible
29 Jul 9.2 04:07:01 14° NNW 04:07:01 14° NNW 04:08:35 10° N visible
29 Jul 11.0 19:48:17 10° SW 19:59:41 17° S 20:06:29 14° SSE visible
29 Jul 11.3 22:08:33 10° SSW 22:11:04 14° SSW 22:11:04 14° SSW visible
30 Jul 10.0 02:57:28 11° NNE 02:57:28 11° NNE 02:57:38 10° NNE visible
30 Jul 11.1 18:28:39 10° SW 18:40:13 19° S 18:52:26 10° SSE visible
30 Jul 10.9 20:51:00 10° SSW 21:01:27 19° S 21:01:27 19° S visible
31 Jul 9.6 03:52:29 11° NNW 03:52:29 11° NNW 03:52:51 10° NNW visible
31 Jul 11.0 19:32:45 10° SSW 19:44:30 18° S 19:51:52 14° SSE visible
31 Jul 11.1 21:51:25 10° SSW 21:56:27 18° SSW 21:56:27 18° SSW visible
01 Aug 11.2 18:14:04 10° SW 18:25:00 18° S 18:36:41 10° SSE visible
01 Aug 10.8 20:34:22 10° SSW 20:46:53 22° S 20:46:53 22° S visible
01 Aug 11.4 22:51:09 10° SW 22:51:29 11° SW 22:51:29 11° SW visible
02 Aug 10.9 19:17:02 10° SSW 19:29:15 19° S 19:37:22 14° SE visible
02 Aug 10.9 21:34:22 10° SW 21:41:58 23° SSW 21:41:58 23° SSW visible
03 Aug 10.7 20:17:44 10° SSW 20:32:29 25° SSE 20:32:29 25° SSE visible
03 Aug 11.2 22:34:05 10° SW 22:37:05 16° SW 22:37:05 16° SW visible
04 Aug 10.9 19:01:10 10° SSW 19:13:55 20° SSE 19:23:04 14° SE visible
04 Aug 10.7 21:17:23 10° SW 21:27:41 30° S 21:27:41 30° S visible
05 Aug 10.5 20:01:07 10° SSW 20:17:07 29° SSE 20:18:20 29° SSE visible
05 Aug 11.0 22:17:05 10° SW 22:22:57 24° SW 22:22:57 24° SW visible
